Flag for Germany Weather past 2 weeks in Willich, North Rhine-Westphalia, Germany

Now
48 °F

Passing clouds.


Feels Like: 45 °F
Forecast: 46 / 68 °F
Wind: 7 mph from Southwest

Location: Duesseldorf

Current Time: May 30, 2015 at 7:11:08 AM

Latest Report: May 30, 2015 at 6:50 AM


Visibility: N/A

Pressure: 29.86 "Hg

Humidity: 94%

Dew point: 46 °F

Location of WillichLocation

Historic Weather in Willich — Graph

°F

Willich temperature yesterday

Maximum temperature yesterday: 63 °F (at 3:20 PM)
Minimum temperature yesterday: 48 °F (at 11:20 PM)
Average temperature yesterday: 56 °F

Past Weeks' High & Low Weather Summary

 TemperatureHumidityPressure
High70 °F (May 18, 2:50 PM)100% (May 16, 3:50 PM)30.33 "Hg (May 16, 3:50 PM)
Low37 °F (May 21, 4:20 AM)33% (May 22, 3:50 PM)29.65 "Hg (May 18, 6:20 PM)
Average55 °F67%30.06 "Hg
* Reported May 15 5:20 AM — May 30 5:50 AM, Willich, Weather by CustomWeather, © 2015

Note: Actual official high and low records may vary slightly from our data, if they occured in-between our weather recording intervals... More about our weather records

Advertising

Willich weather history for previous 24 hours

 ConditionsComfort  
Time TempWeatherWind HumidityBarometerVisibility
5:50 AM
Sat, May 30
48 °FPassing clouds.7 mph94%29.83 "HgN/A
5:20 AM48 °FPassing clouds.7 mph94%29.83 "HgN/A
4:50 AM48 °FPassing clouds.7 mph94%29.83 "HgN/A
4:20 AM48 °FPassing clouds.8 mph94%29.83 "HgN/A
3:50 AM48 °FPartly cloudy.7 mph94%29.83 "HgN/A
3:20 AM48 °FPartly cloudy.8 mph94%29.80 "HgN/A
2:50 AM48 °FPartly cloudy.7 mph94%29.80 "HgN/A
2:20 AM48 °FPassing clouds.6 mph94%29.80 "HgN/A
1:50 AM48 °FPassing clouds.8 mph94%29.80 "HgN/A
1:20 AM48 °FPartly cloudy.10 mph94%29.80 "HgN/A
12:50 AM48 °FDrizzle. Overcast.12 mph94%29.80 "HgN/A
12:20 AM48 °FDrizzle. Mostly cloudy.13 mph94%29.80 "HgN/A
11:50 PM
Fri, May 29
48 °FDrizzle. Overcast.12 mph94%29.77 "HgN/A
11:20 PM48 °FDrizzle. Overcast.12 mph94%29.80 "HgN/A
10:20 PM50 °FLight rain. Partly sunny.13 mph82%29.80 "HgN/A
9:50 PM57 °FLight rain. Partly sunny.13 mph63%29.77 "HgN/A
9:20 PM57 °FLight rain. Partly sunny.18 mph63%29.77 "HgN/A
8:50 PM57 °FLight rain. Partly sunny.20 mph63%29.74 "HgN/A
8:20 PM59 °FLight rain. Partly sunny.13 mph55%29.74 "HgN/A
7:50 PM59 °FPartly sunny.13 mph51%29.74 "HgN/A
7:20 PM61 °FPartly sunny.15 mph48%29.74 "HgN/A
6:50 PM61 °FSunny.18 mph48%29.74 "Hg10 mi
6:20 PM61 °FSunny.15 mph45%29.74 "Hg10 mi
5:50 PM63 °FSunny.20 mph39%29.74 "Hg10 mi
5:20 PM63 °FSunny.17 mph42%29.74 "Hg10 mi
4:50 PM63 °FPartly sunny.20 mph45%29.77 "HgN/A
4:20 PM63 °FBroken clouds.20 mph49%29.77 "HgN/A
3:50 PM63 °FPartly sunny.20 mph49%29.77 "HgN/A
3:20 PM63 °FBroken clouds.17 mph49%29.77 "HgN/A
2:50 PM61 °FBroken clouds.18 mph48%29.77 "HgN/A
2:20 PM61 °FPartly sunny.14 mph52%29.80 "HgN/A
1:50 PM61 °FMore clouds than sun.16 mph48%29.80 "HgN/A
1:20 PM59 °FMore clouds than sun.15 mph55%29.83 "HgN/A
12:50 PM59 °FOvercast.16 mph55%29.83 "HgN/A
12:20 PM59 °FOvercast.18 mph55%29.83 "HgN/A
11:50 AM59 °FOvercast.15 mph51%29.83 "HgN/A
11:20 AM59 °FOvercast.14 mph55%29.86 "HgN/A
10:50 AM57 °FOvercast.13 mph63%29.86 "HgN/A
10:20 AM57 °FPartly sunny.12 mph63%29.86 "HgN/A
9:50 AM55 °FBroken clouds.12 mph67%29.86 "HgN/A
9:20 AM54 °FBroken clouds.8 mph72%29.89 "HgN/A
8:50 AM54 °FBroken clouds.7 mph77%29.89 "HgN/A
8:20 AM52 °FBroken clouds.7 mph77%29.89 "HgN/A
7:50 AM52 °FBroken clouds.7 mph77%29.89 "HgN/A
7:20 AM52 °FScattered clouds.8 mph82%29.89 "HgN/A
Weather by CustomWeather, © 2015

See weather overviewHow to use our weather pages